1998-067RB

Last updated on Sun Feb 23 2020 00:02:06 GMT+0000 (Coordinated Universal Time)

1 45258U 98067RB 20053.22812635 .00005383 00000-0 10277-3 0 9992 2 45258 51.6407 202.2123 0006035 272.9983 87.0316 15.49844145 443
UTC large
Height (km)
Speed (km/s)
/
Latitude / Longitude
Inclination (degrees)
Orbital Period (minutes)
Azimuth
Elevation
Range (km)
Doppler Factor

Next 0 passes for location: London (51.5072 / 0.1276)

Sorry there are no passes over London.